Baker, MT

8:45 PM MDT on July 28, 2016 (GMT -0600)
Baker Municipal

Weather History for KBHK - December, 2012

Change the Weather History Date:

Tuesday, December 4, 2012

  Actual Average Record
Temperature  
Mean Temperature 37 °F -  
Max Temperature 46 °F 27 °F 55 °F (2007)
Min Temperature 28 °F 26 °F -8 °F (2002)
Degree Days  
Heating Degree Days 28    
Moisture  
Dew Point 18 °F    
Average Humidity 51    
Maximum Humidity 64    
Minimum Humidity 31    
Precipitation  
Precipitation 0.00 in - - ()
Sea Level Pressure  
Sea Level Pressure 30.11 in    
Wind  
Wind Speed 8 mph (South)    
Max Wind Speed 13 mph    
Max Gust Speed -    
Visibility 10 miles    
Events      
Averages and records for this station are not official NWS values.
T = Trace of Precipitation, MM = Missing Value Source: NWS Daily Summary

Daily Weather History Graph

Daily Weather History Graph

Search for Another Location

Airport or City:

Trip Planner

Search our weather history database for the weather conditions in past years. The results will help you decide how hot, cold, wet, or windy it might be!

Date:

Astronomy

Dec. 04, 2012 Rise Set
Actual Time 7:23 AM MST 4:11 PM MST
Civil Twilight 6:49 AM MST 4:45 PM MST
Nautical Twilight 6:11 AM MST 5:23 PM MST
Astronomical Twilight 5:35 AM MST 5:59 PM MST
Moon 10:14 PM MST (12/4) 11:06 AM MST (12/4)
Length of Visible Light 9h 56m
Length of Day
8h 47m
Waning Gibbous, 69% of the Moon is Illuminated
Dec 4
Waning Gibbous
Dec 6
Last Quarter
Dec 13
New
Dec 19
First Quarter
Dec 28
Full

Hourly Weather History & Observations

Time (MST) Temp. Windchill Dew Point Humidity Pressure Visibility Wind Dir Wind Speed Gust Speed Precip Events Conditions
12:51 AM 32.0 °F 24.2 °F 17.1 °F 54% 30.09 in 10.0 mi West 9.2 mph - N/A   Mostly Cloudy
1:51 AM 32.0 °F 23.6 °F 18.0 °F 56% 30.12 in 10.0 mi WSW 10.4 mph - N/A   Mostly Cloudy
2:51 AM 32.0 °F 22.5 °F 18.0 °F 56% 30.13 in 10.0 mi WSW 12.7 mph - N/A   Clear
3:51 AM 30.0 °F 25.2 °F 18.0 °F 61% 30.14 in 10.0 mi West 4.6 mph - N/A   Clear
4:51 AM 30.0 °F 21.7 °F 18.0 °F 61% 30.17 in 10.0 mi West 9.2 mph - N/A   Clear
5:51 AM 28.0 °F 20.8 °F 17.1 °F 63% 30.19 in 10.0 mi West 6.9 mph - N/A   Clear
6:51 AM 28.0 °F - 17.1 °F 63% 30.19 in 10.0 mi Calm Calm - N/A   Clear
8:51 AM 35.1 °F - 21.0 °F 57% 30.19 in 10.0 mi Calm Calm - N/A   Clear
9:51 AM 41.0 °F 37.1 °F 19.0 °F 41% 30.18 in 10.0 mi SSW 5.8 mph - N/A   Clear
10:51 AM 45.0 °F 41.2 °F 18.0 °F 34% 30.15 in 10.0 mi South 6.9 mph - N/A   Clear
11:51 AM 46.9 °F - 18.0 °F 32% 30.12 in 10.0 mi South 9.2 mph - N/A   Clear
12:51 PM 46.9 °F - 18.0 °F 32% 30.11 in 10.0 mi SSE 11.5 mph - N/A   Clear
1:51 PM 46.0 °F 40.6 °F 17.1 °F 31% 30.09 in 10.0 mi SE 11.5 mph - N/A   Clear
2:51 PM 46.0 °F 41.0 °F 19.0 °F 34% 30.06 in 10.0 mi ESE 10.4 mph - N/A   Scattered Clouds
3:51 PM 42.1 °F 35.2 °F 18.0 °F 38% 30.08 in 10.0 mi SE 12.7 mph - N/A   Mostly Cloudy
4:51 PM 33.1 °F 26.1 °F 18.0 °F 54% 30.07 in 10.0 mi SE 8.1 mph - N/A   Clear
5:51 PM 32.0 °F 25.6 °F 18.0 °F 56% 30.09 in 10.0 mi SE 6.9 mph - N/A   Clear
6:51 PM 34.0 °F 26.6 °F 18.0 °F 52% 30.09 in 10.0 mi SE 9.2 mph - N/A   Overcast
7:51 PM 30.9 °F 21.7 °F 18.0 °F 59% 30.08 in 10.0 mi SE 11.5 mph - N/A   Clear
8:51 PM 33.1 °F 23.9 °F 18.0 °F 54% 30.05 in 10.0 mi SE 12.7 mph - N/A   Clear
10:51 PM 30.9 °F 24.3 °F 18.0 °F 59% 30.00 in 10.0 mi ESE 6.9 mph - N/A   Clear
11:51 PM 28.9 °F 21.9 °F 18.0 °F 64% 29.99 in 10.0 mi ESE 6.9 mph - N/A   Clear